Regional Weather Roundup
Issued by NWS Wakefield, VA

Home | Current Version | Previous Version | Graphics & Text | Print | Product List | Glossary On
Versions: 1 2 3 4 5 6 7 8 9 10 11 12 13 14 15 16 17 18 19 20 21 22 23 24 25 26 27
000
ASUS41 KAKQ 192115
RWRAKQ

REGIONAL WEATHER ROUNDUP
NATIONAL WEATHER SERVICE WAKEFIELD VA
400 PM EST MON FEB 19 2018

Note: "fair" indicates few or no clouds below 12,000 feet with no
significant weather and/or obstructions to visibility. * = Denotes
station may not report precipitation (e.g., rain,snow,etc.),
thunder or fog.

VAZ042-051-052>054-056-192200-
NORTHERN VIRGINIA

CITY           SKY/WX    TMP DP  RH WIND       PRES   REMARKS
WASH NATIONAL  CLOUDY    45  44  97 S5        30.36F
DULLES         CLOUDY    46  45  96 S8        30.33S
FORT BELVOIR   CLOUDY    45  43  93 SE3       30.36S
QUANTICO       CLOUDY    45  45 100 S8        30.37F
FREDERICKSBRG* CLOUDY    47  47 100 S5        30.35F
STAFFORD*      CLOUDY    47  47 100 S5        30.40S
WARRENTON      CLOUDY    48  44  84 S3        30.33S
CULPEPER*      CLOUDY    50  45  84 S7        30.34F
MANASSAS*      CLOUDY    47  45  93 S12       30.34F
LEESBURG*      CLOUDY    46  45  93 S9G16     30.32F
WINCHESTER     FAIR      61  46  59 S7        30.26F
FRONT ROYAL*   FAIR      61  50  67 SW6       30.24F
LURAY*         FAIR      63  52  67 S16G23    30.26S
$$

VAZ048-049-060>072-079>083-192200-
CENTRAL AND SOUTH CENTRAL VIRGINIA

CITY           SKY/WX    TMP DP  RH WIND       PRES   REMARKS
RICHMOND       CLOUDY    50  48  93 S7        30.37F
CHESTERFIELD*  CLOUDY    51  49  92 S6        30.37F
PETERSBURG*    CLOUDY    48  46  93 S3        30.39S
HANOVER        CLOUDY    49  47  93 S6        30.38F FOG
TAPPAHANNOCK*  CLOUDY    51  51  97 SW3       30.38F
QUINTON*       CLOUDY    47  47 100 SE6       30.38F FOG
CHARLOTTSVILLE PTSUNNY   54  47  77 S13       30.32S
GORDONSVILLE*  CLOUDY    49  47  93 SW6       30.33S
ORANGE*        CLOUDY    48  45  87 S5        30.34S
LOUISA*        CLOUDY    46  44  92 S8        30.38F
BUMPASS*       CLOUDY    46  44  95 S6        30.36F
FARMVILLE*     CLOUDY    52  52 100 S7        30.35F
CREWE*         CLOUDY    52  52 100 CALM      30.37S
FORT PICKETT*  CLOUDY    51  51 100 S6        30.37S
CHASE CITY*    CLOUDY    50  50 100 CALM      30.37F
CLARKSVILLE*   CLOUDY    52  52 100 CALM      30.37F
SOUTH HILL*    CLOUDY    49  49  99 S3        30.44S
LAWRENCEVILLE* CLOUDY    48  47  95 S3        30.38F
EMPORIA*       CLOUDY    46  46 100 CALM      30.41S FOG
$$

VAZ088>098-192200-
SOUTHEAST VIRGINIA

CITY           SKY/WX    TMP DP  RH WIND       PRES   REMARKS
NORFOLK        CLOUDY    60  59  96 S7        30.37S
VIRGINIA BEACH PTSUNNY   59  57  93 S7        30.37S
NORFOLK NAVAL  CLOUDY    59  57  93 CALM      30.39S FOG
WEST POINT*    CLOUDY    49  48  96 CALM      30.40F
SALUDA*        CLOUDY    52  52 100 S6        30.38F
NEWPORT NEWS   CLOUDY    54  53  97 W3        30.39S FOG
LANGLEY AFB    CLOUDY    55  55 100 NW5       30.38S FOG
FORT EUSTIS    DRIZZLE   53  52  97 CALM      30.36F
WILLIAMSBURG*  CLOUDY    54  52  94 CALM      30.40S
HR EXEC AP*    CLOUDY    58  57  97 S5        30.39S
FRANKLIN*      CLOUDY    51  50  97 CALM      30.40S FOG
US460-WAKEFLD  CLOUDY    50  50 100 CALM      30.39F FOG
$$

VAZ020-022-025-037-045-192200-
WEST CENTRAL AND SOUTHWEST VIRGINIA

CITY           SKY/WX    TMP DP  RH WIND       PRES   REMARKS
STAUNTON*      CLOUDY    58  49  71 W5        30.31R
WAYNESBORO*    CLOUDY    57  48  73 E3        30.29S
HOT SPRINGS VA FAIR      56  52  85 SW8       30.31S
LYNCHBURG      CLOUDY    48  44  86 S5        30.36S
DANVILLE       CLOUDY    49  48  97 CALM      30.38F
SOUTH BOSTON*  CLOUDY    50  49  95 CALM      30.37F
MARTINSVILLE   CLOUDY    49  46  90 CALM      30.39S
ROANOKE        CLOUDY    49  44  83 E3        30.36S
BLACKSBURG     FAIR      58  51  77 E7        30.33F
DUBLIN*        FAIR      60  52  74 NE5       30.31S
MARION*        CLOUDY    65  29  26 CALM      30.31S
HILLSVILLE*    FAIR      57  53  86 S10G17    30.31S
RICHLANDS*     CLOUDY    68  52  56 S7        30.28S
WISE*          PTSUNNY   64  54  68 S18       30.28S
ABINGDON*      CLOUDY    71  55  55 SW15G21   30.26S
$$

MDZ021>025-VAZ099-100-192200-
SOUTHERN MARYLAND AND THE DELMARVA PENINSULA

CITY           SKY/WX    TMP DP  RH WIND       PRES   REMARKS
PATUXENT RIVER CLOUDY    45  45 100 SE3       30.36F FOG
BAY BRIDGE APT DRIZZLE   45  45 100 W5        30.38S FOG
LEONARDTOWN    CLOUDY    50  48  93 CALM      30.38F
DOVER          CLOUDY    50  45  82 E6        30.37R
GEORGETOWN     CLOUDY    59  51  75 S15       30.37F
EASTON         FOG       52  50  93 SW3       30.40F VSB 1
CAMBRIDGE      CLOUDY    52  50  93 S13       30.37F FOG
SALISBURY      CLOUDY    56  54  93 S9        30.38F FOG
OCEAN CITY     CLOUDY    52  49  89 SW8       30.40F
WALLOPS ISLAND CLOUDY    53  52  96 S13       30.40F
ACCOMACK*      LGT RAIN  54  53  95 S10       30.39F
$$

NCZ012>017-030>032-192200-
NORTH CENTRAL AND EASTERN NORTH CAROLINA

CITY           SKY/WX    TMP DP  RH WIND       PRES   REMARKS
ROANOKE RAPIDS NOT AVBL
RALEIGH        CLOUDY    48  47  96 CALM      30.39F FOG
ELIZABETH CITY CLOUDY    64  61  90 S7        30.38F
AHOSKIE*       CLOUDY    50  50 100 CALM      30.40S FOG
EDENTON*       CLOUDY    66  61  85 CALM      30.39S
CURRITUCK*     CLOUDY    59  56  90 S5        30.39F
KILL DEVIL HLS CLOUDY    63  63 100 S7        30.38S
MANTEO         CLOUDY    59  56  90 S7        30.41S
CAPE HATTERAS  CLOUDY    65  61  87 S10       30.41S
TARBORO*       NOT AVBL
GOLDSBORO      CLOUDY    60  51  72 NW5       30.36S HAZE
WASHINGTON     PTSUNNY   69  58  68 CALM      30.37S
GREENVILLE     FAIR      61  54  77 N5        30.38S
NEW BERN       PTSUNNY   73  63  70 SW13G20   30.38S
WILMINGTON     CLOUDY    71  65  81 S10       30.37S
$$

VAZ048-192200-
ELSEWHERE

CITY           SKY/WX    TMP DP  RH WIND       PRES   REMARKS
HARRISBURG PA  CLOUDY    43  41  93 SE7       30.32F
BALTIMORE      DRIZZLE   44  44 100 SE5       30.35F FOG
ANNAPOLIS      CLOUDY    44  44 100 CALM      30.37S FOG
ANDREWS AFB    CLOUDY    46  45  96 S5        30.35F
PHILADELPHIA   CLOUDY    48  42  80 W6        30.38S
HENDERSON NC   CLOUDY    48  46  90 S3        30.38S
GREENSBORO     CLOUDY    52  50  93 CALM      30.36S
ROCKY MOUNT    CLOUDY    52  49  89 CALM      30.39F FOG
$$

VAZ100-192200-
MARINE

STATION/POSITION TIME  TEMP    WIND        PRES    WAVE   SWELL
                       AIR SEA DIR/SP/G            HT/PER HT/PER
                 (UTC) (F)     (DEG/KT/KT) (MB)    (FT/S) (FT/S)
BRANDYWINE LGT   2048   44     170/ 14/ 15 1028.9F
CAPE MAY NJ      2048   48 40  160/ 10/ 14 1028.4F
LEWES DE         2048   57 41  190/  7/ 11 1028.3F
15NM E FENWICK I 2050   47 43  150/  8/ 10 1030.1F   2/ 8   2/ 8
OCEAN-CITY-INLET 2048   47 41  200/  7/  9 1030.0F
WACHAPREAGUE VA  2048   51 48  220/  2/  4 1029.3F
THOMAS POINT MD  2100   40 38     CALM       N/A
GOOSES REEF MD   2100   41 38  170/ 10/ 10 1028.6    1
COVE POINT MD    2048   43     180/  9/ 10 1029.0F
SOLOMONS ISLAND  2048   42 40   90/  5/  5 1027.9F
BISHOPS HEAD MD  2048   46 44  160/  8/ 10 1029.0F
POTOMAC MD       2100   45 42   10/  8/  8 1027.9
CAMBRIDGE MD     2048   51 44              1029.1F
LEWISETTA VA     2048   53 44  200/  9/ 11 1028.3F
RAPPAHANNOCK LGT 2048          160/  8/  9 1029.6F
STINGRAY PT      2100   45 43  180/  6/  8 1030.1    0
YORK RVR RNG VA  2048   45     280/  1/  4 1029.5R
YORKTOWN VA      2048   47 45   CALM  /  1 1028.8R
DOMINION TERM VA 2048   54     320/  4/  5 1029.1S
KIPTOPEKE VA     2048      43  140/  5/  6   N/A
CAPE HENRY VA    2048   57     170/  3/  6   N/A
S CRANEY ISL VA  2048   56     210/  4/  5 1028.6S
CAPE HENRY BUOY  2100      44                N/A     2/10
1ST LANDING BUOY 2100   49     110/  4/  6 1028.9
CAPE CHARLES BUO 2051      43                N/A     2/10
64NM E OF VA BCH 2050   54 50  150/  8/ 10 1030.2F   3/ 9   2/ 9
DUCK PIER NC     2048   56 45  150/ 14/ 17 1028.6R
44056 DUCK FRF   2100      45                N/A     3/ 4
OREGON INLET NC  2042   55 47  180/  5/  6 1029.6S
HATTERAS NC      2048   64 56  160/  7/ 10 1029.5R
DIAMOND SHLS NC  2050   70 71  160/ 17/ 21 1030.3R   5/ 9   3/ 9
CAPE LOOKOUT NC  2100          170/  9/ 10 1029.3R
$$




USA.gov is the U.S. government's official web portal to all federal, state and local government web resources and services.